Wind_Speed
44 43 42 41 42 42 43 44 44 45 45 46 46 47 48 49 50 52 53 54 54 55 56 56 56 57 58 58 59 59 60 61 61 62 63 64 65 65 65 66 66 65 65
43 43 43 44 44 45 46 47 47 48 49 50 51 52 53 55 56 56 56 57 57 58 58 58 58 58 59 59 59 60 60 61 61 60 60 61 62 63 63 62 61 61 59
44 45 46 47 48 48 49 50 52 53 54 55 57 58 58 59 59 59 59 60 60 59 59 58 58 59 59 59 60 60 59 59 59 58 58 59 59 59 58 56 55 53 52
46 47 49 50 51 52 53 55 56 57 58 59 61 61 61 61 60 60 60 59 58 58 58 59 59 59 59 59 58 58 57 57 56 56 56 55 55 54 52 50 47 46 45
47 48 50 52 53 54 55 56 57 58 60 61 61 60 59 59 58 58 58 58 57 58 58 59 59 58 57 57 56 56 55 54 54 53 52 50 49 47 45 44 42 40 39
47 48 50 52 53 54 56 56 56 56 56 57 57 57 57 57 56 56 57 57 57 57 57 57 56 56 55 55 54 53 52 51 50 48 46 44 42 40 38 36 35 34 33
44 46 47 49 51 52 52 52 52 52 52 53 53 54 55 55 56 56 56 56 55 55 54 54 54 54 53 51 50 49 48 47 44 42 39 37 34 32 31 30 30 30 30
40 42 44 46 48 48 49 49 49 49 49 50 51 51 52 53 54 53 53 53 53 52 52 51 50 49 47 45 44 44 43 41 38 35 31 29 27 26 26 25 24 25 26
40 41 42 43 45 45 45 46 47 47 47 48 49 50 50 51 51 51 51 50 49 49 47 45 43 41 40 39 38 36 35 33 31 27 24 23 23 22 22 21 22 22 23
37 38 39 40 41 42 43 44 44 45 45 46 46 46 47 47 47 47 46 45 44 42 40 38 37 35 34 32 29 27 25 23 21 20 20 20 19 19 19 19 20 20 20
34 35 36 37 38 39 40 41 42 42 43 43 43 43 43 43 43 42 41 40 37 35 33 31 30 28 25 22 19 17 16 15 15 15 16 16 16 17 17 18 18 19 19
31 32 34 35 36 36 37 38 38 38 38 38 38 38 37 37 36 36 34 32 30 27 25 23 20 17 14 12 10 9 9 10 11 12 13 14 14 15 16 17 18 18 19
29 30 31 31 32 32 33 33 33 33 32 32 31 30 29 29 28 27 25 22 20 17 15 12 10 8 6 4 4 5 6 8 10 11 12 13 14 14 15 16 17 19 20
25 26 27 27 28 28 28 27 27 27 26 25 24 22 21 20 18 16 13 11 8 6 4 2 1 2 3 4 5 6 8 9 10 11 12 13 14 15 16 17 18 20 21
23 24 24 24 24 24 23 22 21 20 20 19 18 16 15 13 11 8 5 3 2 4 5 6 7 7 7 8 9 10 11 12 12 13 14 15 16 17 18 18 19 20 21
21 21 20 20 20 20 19 19 18 17 16 15 14 13 12 10 7 5 5 6 8 10 11 11 11 11 11 12 12 12 13 13 14 15 16 17 18 18 19 19 19 20 21
18 18 17 17 17 16 16 16 15 14 13 12 11 10 9 7 7 8 10 12 13 14 13 13 13 13 13 13 13 13 14 14 15 16 17 18 19 20 20 20 20 21 22
16 16 15 15 14 13 13 13 12 12 12 11 10 9 9 9 11 12 13 14 15 14 14 13 13 14 13 13 13 14 15 16 17 18 19 19 20 21 21 21 21 22 22
14 14 14 13 13 12 12 11 11 11 11 11 10 11 11 12 13 13 14 14 14 14 14 14 14 13 13 13 14 14 15 16 17 19 20 20 21 21 22 22 22 22 22
12 13 13 12 12 12 11 11 11 11 11 11 11 11 12 12 13 14 14 14 14 14 13 13 13 13 13 13 14 14 15 17 18 19 20 21 22 22 23 23 23 23 22
12 11 11 11 11 11 11 11 11 11 11 11 12 12 12 12 13 14 14 14 13 13 13 12 12 12 12 13 14 15 16 17 18 19 20 21 22 23 24 24 24 24 23
10 10 10 10 10 10 10 11 11 11 11 11 12 12 12 12 13 13 14 14 13 12 12 11 11 11 12 13 14 15 16 17 18 19 20 22 23 24 25 26 25 24 23
9 9 9 9 9 9 10 10 10 10 10 10 11 11 12 12 12 13 13 12 12 11 11 10 10 11 11 12 14 15 16 17 17 18 20 21 22 24 25 25 26 25 24
8 8 8 8 9 9 8 8 8 9 9 9 9 10 10 11 11 11 11 11 10 10 10 10 10 10 11 12 13 14 15 16 17 18 20 21 22 22 23 24 25 25 25
8 8 7 8 8 8 7 7 7 7 7 8 8 8 9 9 9 9 9 9 9 9 9 9 10 11 11 12 13 14 15 16 17 18 19 20 21 22 22 23 24 24 25
7 7 7 7 7 7 6 6 6 6 6 6 6 6 7 7 8 8 8 8 8 8 9 9 10 11 11 12 13 13 14 15 16 17 18 19 20 21 21 22 22 23 23
Wind_Direction
276 277 277 278 280 281 282 284 285 287 289 289 290 290 290 290 290 290 290 291 291 290 290 290 290 290 290 291 292 292 291 291 290 290 290 290 290 290 291 291 291 291 290
273 275 276 277 279 280 282 284 285 286 287 288 288 288 289 289 290 290 290 290 290 290 290 291 291 292 292 292 292 292 292 292 292 292 292 292 292 292 293 293 292 292 292
270 272 273 275 278 279 281 282 283 284 286 286 287 287 288 288 289 290 290 290 290 290 291 292 292 292 292 293 292 293 293 293 294 294 293 293 294 294 294 294 294 294 294
267 269 271 274 277 279 280 281 282 283 284 285 285 286 287 288 288 289 289 289 289 290 291 292 292 292 292 292 293 293 294 294 295 295 295 295 295 296 296 297 297 297 296
266 269 272 274 276 277 279 280 281 281 282 284 285 286 286 287 287 288 288 289 290 290 291 291 291 291 292 292 293 293 294 294 295 296 296 297 297 298 299 300 300 299 298
269 271 273 275 277 278 279 280 282 282 282 283 285 287 287 287 288 288 289 290 290 290 290 290 290 291 291 292 292 293 294 294 295 296 297 298 299 301 302 302 303 302 301
274 275 276 277 277 278 279 280 282 284 286 287 288 289 289 289 289 289 289 289 288 288 288 289 290 290 291 292 292 292 294 295 296 298 299 301 302 304 305 306 307 309 309
278 278 278 278 280 281 284 286 287 288 288 289 289 288 288 288 288 287 287 287 287 287 288 289 290 290 290 290 291 293 294 296 299 301 303 306 308 310 313 315 316 317 318
283 284 285 286 288 289 290 290 291 290 290 289 289 289 288 287 287 287 287 288 288 289 290 291 290 290 290 290 291 292 295 298 301 304 308 312 316 320 322 324 325 326 326
288 289 291 292 292 291 291 291 291 290 290 290 290 289 289 289 289 289 289 289 290 290 290 290 290 290 290 291 291 292 296 299 305 312 318 323 327 330 333 335 336 336 336
294 295 296 295 295 294 293 292 292 292 292 291 291 291 291 290 290 290 290 289 289 288 288 289 290 291 291 291 292 295 299 307 316 324 329 332 335 337 340 342 345 346 347
299 299 299 298 297 296 295 295 295 295 295 294 294 294 293 292 291 290 289 289 287 287 288 289 290 291 291 294 299 306 316 327 335 340 342 344 345 347 350 351 352 353 354
303 304 303 302 301 300 299 299 299 299 299 300 299 299 298 298 296 295 293 291 289 288 286 287 289 293 301 314 327 342 353 357 358 359 360 359 358 357 356 357 358 358 358
310 311 311 309 308 308 307 307 306 306 306 308 308 308 308 308 307 305 302 299 296 295 294 302 360 61 64 53 45 38 30 22 17 16 14 11 7 5 3 1 1 360 0
317 318 319 318 318 318 318 317 317 318 319 319 320 320 322 323 326 331 339 3 48 75 88 92 93 88 79 71 62 52 43 36 31 26 21 17 12 8 5 3 3 2 2
325 326 326 326 325 327 328 329 330 330 332 333 335 336 339 343 353 19 54 77 89 94 96 96 92 86 80 73 65 56 47 39 34 28 23 19 14 11 9 7 6 6 6
333 334 334 335 336 336 337 339 342 344 347 350 352 357 6 26 51 71 86 95 98 99 98 94 89 85 79 72 63 56 48 41 35 29 24 20 17 15 13 11 10 10 10
342 344 345 346 348 348 349 352 354 356 2 9 17 30 47 64 77 88 93 98 100 100 97 93 89 83 76 68 60 52 45 40 34 29 25 21 19 17 15 14 13 13 13
348 352 355 358 1 2 4 7 10 15 23 34 47 58 69 78 85 90 94 98 99 99 96 91 86 79 70 62 54 48 42 38 34 29 25 22 21 19 18 16 16 17 18
353 359 3 6 9 13 17 22 28 34 40 49 58 67 75 81 86 91 94 95 97 97 94 89 82 73 65 57 50 45 40 35 31 28 26 25 24 22 20 20 20 21 22
356 3 8 12 18 24 28 33 38 43 49 57 65 71 77 83 89 92 93 94 95 93 89 84 76 67 58 53 48 43 38 33 30 30 30 30 30 29 28 26 25 25 27
359 7 10 14 22 29 34 38 43 48 54 61 68 74 79 85 90 93 93 92 91 89 84 77 68 60 54 50 46 40 35 32 32 34 35 35 35 33 32 31 30 31 32
4 10 13 17 23 30 35 39 44 50 57 64 70 76 81 86 92 94 93 91 89 86 80 71 64 59 54 49 43 39 37 37 39 40 39 36 35 33 33 33 33 34 36
6 10 13 17 23 29 34 41 48 54 60 67 74 80 84 89 93 93 92 90 87 81 73 66 63 58 53 47 44 43 44 44 43 41 38 35 33 33 33 34 35 37 40
9 10 14 21 25 30 36 43 50 57 64 71 79 86 89 91 93 94 93 90 85 78 71 67 63 58 54 51 50 50 49 45 41 38 36 34 33 33 34 35 36 38 41
14 17 24 29 30 33 39 48 57 63 69 75 83 92 96 95 95 94 91 88 82 77 74 69 65 61 57 55 54 51 46 41 37 36 35 33 33 33 33 35 36 38 41
Height
5801 5800 5799 5798 5796 5795 5793 5791 5789 5787 5785 5782 5780 5777 5774 5771 5768 5765 5761 5758 5754 5750 5746 5742 5738 5733 5728 5723 5718 5712 5707 5702 5697 5691 5682 5674 5667 5660 5653 5646 5639 5632 5626
5793 5792 5790 5789 5787 5785 5783 5781 5778 5776 5773 5771 5768 5764 5761 5757 5754 5750 5747 5743 5739 5735 5731 5727 5723 5718 5712 5707 5702 5696 5690 5684 5680 5675 5666 5658 5650 5644 5638 5630 5623 5616 5609
5784 5783 5781 5779 5777 5775 5772 5770 5767 5764 5761 5758 5755 5751 5747 5743 5740 5736 5733 5729 5725 5720 5716 5711 5707 5702 5696 5691 5686 5680 5674 5668 5663 5658 5652 5643 5636 5629 5623 5616 5608 5601 5595
5774 5773 5771 5769 5766 5764 5761 5758 5755 5752 5748 5745 5741 5737 5733 5729 5725 5721 5718 5713 5709 5705 5700 5696 5691 5686 5681 5675 5670 5665 5659 5654 5648 5642 5637 5630 5622 5615 5609 5603 5596 5589 5582
5763 5762 5760 5758 5755 5752 5749 5745 5742 5739 5735 5731 5726 5722 5718 5714 5710 5706 5702 5698 5693 5689 5684 5680 5675 5670 5665 5660 5655 5650 5645 5640 5634 5629 5623 5617 5610 5603 5597 5591 5585 5579 5573
5752 5751 5748 5746 5743 5739 5736 5733 5729 5725 5721 5717 5713 5708 5704 5700 5695 5691 5686 5682 5677 5673 5668 5664 5659 5655 5650 5646 5641 5636 5632 5628 5623 5617 5611 5605 5600 5593 5587 5581 5575 5570 5564
5740 5738 5736 5733 5730 5726 5723 5719 5715 5711 5707 5703 5698 5694 5689 5685 5680 5675 5671 5666 5662 5657 5653 5649 5644 5640 5636 5632 5627 5623 5619 5615 5611 5607 5602 5596 5591 5585 5580 5574 5568 5562 5556
5728 5726 5723 5720 5716 5713 5709 5705 5701 5698 5693 5688 5683 5678 5673 5669 5664 5660 5655 5651 5646 5642 5638 5634 5630 5626 5623 5620 5616 5612 5609 5605 5601 5597 5593 5589 5584 5578 5573 5567 5562 5556 5550
5717 5714 5711 5707 5704 5700 5696 5692 5688 5683 5679 5674 5669 5664 5658 5653 5649 5644 5640 5636 5632 5628 5625 5621 5618 5614 5611 5609 5606 5603 5600 5597 5593 5590 5586 5582 5578 5573 5567 5562 5557 5552 5546
5707 5703 5699 5695 5692 5688 5683 5679 5674 5670 5665 5660 5655 5650 5644 5639 5634 5630 5626 5622 5618 5615 5612 5610 5607 5604 5602 5600 5598 5596 5594 5591 5588 5585 5581 5577 5573 5568 5564 5559 5554 5549 5543
5697 5693 5689 5684 5680 5675 5671 5666 5662 5657 5652 5647 5642 5637 5631 5626 5621 5617 5613 5610 5608 5605 5602 5600 5599 5597 5595 5594 5592 5591 5590 5587 5585 5582 5578 5574 5570 5566 5562 5557 5552 5547 5542
5687 5683 5679 5674 5669 5664 5659 5654 5650 5644 5639 5635 5630 5625 5619 5614 5610 5606 5602 5600 5598 5596 5595 5594 5592 5591 5591 5590 5589 5588 5587 5585 5583 5580 5577 5573 5569 5565 5561 5556 5551 5546 5540
5679 5674 5669 5664 5659 5654 5649 5644 5639 5634 5629 5625 5620 5615 5610 5605 5601 5597 5594 5592 5591 5590 5590 5589 5589 5589 5589 5588 5588 5587 5586 5584 5582 5579 5576 5572 5569 5565 5560 5556 5550 5545 5540
5671 5666 5661 5656 5651 5646 5641 5636 5631 5626 5622 5617 5612 5608 5604 5599 5595 5592 5590 5588 5587 5587 5587 5588 5588 5588 5589 5589 5588 5587 5586 5584 5582 5579 5576 5572 5568 5564 5560 5555 5550 5545 5540
5664 5660 5654 5649 5644 5639 5634 5630 5625 5621 5616 5612 5608 5604 5600 5597 5593 5590 5588 5588 5587 5588 5588 5589 5589 5590 5590 5590 5589 5588 5587 5585 5582 5579 5576 5573 5569 5564 5560 5555 5551 5546 5540
5659 5654 5649 5645 5640 5635 5631 5626 5622 5618 5613 5609 5606 5602 5599 5596 5593 5591 5590 5589 5589 5590 5591 5591 5592 5592 5592 5592 5591 5590 5588 5586 5583 5580 5577 5573 5569 5565 5561 5556 5551 5546 5541
5655 5651 5646 5642 5637 5633 5629 5624 5620 5616 5612 5609 5605 5602 5599 5596 5595 5593 5593 5593 5593 5594 5594 5595 5595 5595 5595 5594 5593 5592 5590 5588 5585 5582 5578 5574 5570 5566 5561 5557 5552 5547 5542
5653 5648 5644 5640 5636 5632 5628 5624 5620 5617 5613 5610 5607 5604 5601 5599 5598 5597 5597 5597 5597 5598 5598 5598 5598 5598 5598 5597 5596 5594 5592 5590 5587 5583 5580 5576 5572 5567 5563 5558 5553 5548 5543
5651 5647 5643 5639 5636 5632 5628 5625 5621 5618 5615 5612 5609 5607 5605 5604 5603 5602 5602 5602 5602 5602 5602 5602 5602 5602 5601 5600 5599 5597 5595 5592 5589 5586 5582 5578 5574 5569 5565 5560 5555 5550 5545
5650 5646 5643 5640 5636 5633 5630 5626 5623 5620 5617 5615 5613 5611 5609 5608 5607 5607 5607 5606 5606 5607 5607 5607 5606 5606 5605 5604 5602 5600 5597 5594 5591 5588 5584 5580 5576 5571 5567 5562 5557 5552 5547
5649 5646 5643 5640 5637 5634 5631 5628 5626 5623 5621 5618 5617 5615 5614 5613 5612 5611 5611 5611 5611 5611 5611 5611 5610 5609 5608 5607 5605 5603 5600 5597 5594 5591 5587 5583 5579 5574 5570 5565 5560 5555 5550
5648 5646 5643 5641 5638 5636 5633 5630 5628 5626 5624 5622 5621 5619 5618 5617 5616 5616 5616 5616 5616 5615 5615 5615 5614 5613 5611 5610 5608 5605 5603 5600 5597 5594 5590 5586 5582 5578 5573 5569 5564 5559 5554
5648 5646 5644 5642 5639 5637 5635 5632 5631 5629 5627 5626 5624 5623 5622 5622 5621 5621 5620 5620 5620 5619 5619 5618 5617 5616 5614 5613 5610 5608 5606 5603 5600 5597 5594 5590 5586 5582 5578 5573 5568 5564 5559
5648 5646 5644 5642 5640 5638 5636 5635 5633 5631 5630 5629 5628 5627 5626 5626 5625 5625 5624 5624 5624 5623 5622 5621 5620 5619 5617 5615 5613 5611 5609 5606 5604 5601 5598 5594 5590 5586 5582 5578 5573 5569 5564
5648 5647 5645 5643 5641 5639 5638 5636 5635 5634 5633 5632 5631 5630 5630 5629 5629 5628 5628 5627 5627 5626 5625 5624 5623 5622 5620 5618 5616 5614 5612 5610 5607 5604 5601 5598 5594 5590 5586 5582 5578 5574 5570
5648 5647 5645 5643 5642 5640 5639 5638 5637 5636 5635 5634 5633 5633 5632 5632 5632 5631 5631 5630 5630 5629 5628 5627 5626 5624 5623 5621 5620 5618 5616 5614 5611 5608 5604 5601 5598 5594 5591 5587 5583 5579 5575